Flag for Japan Weather past 2 weeks in Yokosuka, Japan

Now
57 °F

Partly sunny.


Feels Like: 57 °F
Forecast: 53 / 65 °F
Wind: 3 mph from East

Location: Tokyo International Airport

Current Time: Mar 29, 2015 at 9:07:18 AM

Latest Report: Mar 29, 2015 at 8:30 AM


Visibility: N/A

Pressure: 30.01 "Hg

Humidity: 55%

Dew point: 41 °F

Location of YokosukaLocation

Historic Weather in Yokosuka — Graph

°F

Yokosuka temperature yesterday

Maximum temperature yesterday: 66 °F (at 2:30 PM)
Minimum temperature yesterday: 46 °F (at 5:00 AM)
Average temperature yesterday: 57 °F

Past Weeks' High & Low Weather Summary

 TemperatureHumidityPressure
High68 °F (Mar 17, 2:00 PM)100% (Mar 16, 8:00 PM)30.45 "Hg (Mar 16, 8:00 PM)
Low39 °F (Mar 24, 4:30 AM)17% (Mar 24, 2:00 PM)29.65 "Hg (Mar 19, 2:00 PM)
Average52 °F62%30.07 "Hg
* Reported Mar 14 8:00 AM — Mar 29 8:00 AM, Yokosuka, Weather by CustomWeather, © 2015

Note: Actual official high and low records may vary slightly from our data, if they occured in-between our weather recording intervals... More about our weather records

Advertising

Yokosuka weather history for previous 24 hours

 ConditionsComfort  
Time TempWeatherWind HumidityBarometerVisibility
8:00 AM
Sun, Mar 29
57 °FPartly sunny.3 mph59%30.01 "HgN/A
7:30 AM57 °FScattered clouds.2 mph44%30.01 "HgN/A
7:00 AM55 °FScattered clouds.No wind55%30.01 "HgN/A
6:30 AM54 °FPartly sunny.1 mph51%30.01 "HgN/A
6:00 AM54 °FPartly sunny.1 mph58%30.01 "HgN/A
5:30 AM54 °FPassing clouds.2 mph67%30.01 "HgN/A
5:00 AM55 °FClear.1 mph55%30.01 "Hg10 mi
4:30 AM55 °FClear.5 mph63%30.01 "Hg10 mi
4:00 AM55 °FClear.7 mph63%30.01 "Hg10 mi
3:30 AM54 °FClear.7 mph63%30.01 "Hg10 mi
3:00 AM55 °FClear.6 mph63%29.98 "Hg10 mi
2:30 AM55 °FClear.8 mph63%29.98 "Hg10 mi
2:00 AM57 °FClear.10 mph59%29.98 "Hg10 mi
1:30 AM57 °FClear.12 mph59%30.01 "Hg10 mi
1:00 AM57 °FPassing clouds.10 mph59%30.01 "HgN/A
12:30 AM59 °FPassing clouds.15 mph55%30.01 "HgN/A
12:00 AM59 °FPassing clouds.15 mph59%30.01 "HgN/A
11:30 PM
Sat, Mar 28
59 °FClear.15 mph59%30.01 "Hg10 mi
11:00 PM59 °FClear.16 mph59%30.01 "Hg10 mi
10:30 PM59 °FClear.16 mph63%30.01 "Hg10 mi
10:00 PM61 °FClear.15 mph55%30.01 "Hg10 mi
9:30 PM61 °FClear.18 mph55%30.01 "Hg10 mi
9:00 PM61 °FClear.18 mph55%30.01 "Hg10 mi
8:30 PM61 °FClear.20 mph55%30.01 "Hg10 mi
8:00 PM61 °FPassing clouds.17 mph48%30.01 "HgN/A
7:30 PM63 °FClear.16 mph45%30.01 "Hg10 mi
7:00 PM61 °FClear.14 mph52%29.98 "Hg10 mi
6:30 PM61 °FClear.15 mph52%29.98 "Hg10 mi
6:00 PM63 °FClear.14 mph49%29.98 "Hg10 mi
5:30 PM63 °FSunny.16 mph45%29.98 "Hg10 mi
5:00 PM63 °FSunny.13 mph42%29.98 "Hg10 mi
4:30 PM66 °FSunny.9 mph32%29.98 "Hg10 mi
4:00 PM66 °FSunny.9 mph37%29.98 "Hg10 mi
3:30 PM66 °FSunny.12 mph35%29.98 "Hg10 mi
3:00 PM64 °FSunny.13 mph40%29.98 "Hg10 mi
2:30 PM66 °FPassing clouds.12 mph35%30.01 "HgN/A
2:00 PM64 °FPassing clouds.9 mph26%30.01 "HgN/A
1:30 PM63 °FSunny.15 mph49%30.01 "Hg10 mi
1:00 PM63 °FSunny.15 mph42%30.04 "Hg10 mi
12:30 PM63 °FSunny.12 mph37%30.04 "Hg10 mi
12:00 PM57 °FSunny.8 mph55%30.07 "Hg10 mi
11:30 AM57 °FSunny.7 mph51%30.07 "Hg10 mi
11:00 AM55 °FSunny.6 mph55%30.09 "Hg10 mi
10:30 AM55 °FSunny.6 mph55%30.09 "Hg10 mi
10:00 AM55 °FPartly sunny.3 mph55%30.12 "HgN/A
9:30 AM55 °FBroken clouds.3 mph44%30.12 "HgN/A
9:00 AM54 °FPartly sunny.3 mph51%30.12 "HgN/A
Weather by CustomWeather, © 2015

See weather overviewHow to use our weather pages